Alexandria, LA

2:03 PM CST on January 20, 2017 (GMT -0600)
Alexandria International

Weather History for KAEX - January, 2005

Change the Weather History Date:

Wednesday, January 19, 2005

  Actual Average Record
Temperature  
Mean Temperature 46 °F 49 °F  
Max Temperature 61 °F 59 °F 81 °F (1895)
Min Temperature 30 °F 38 °F 10 °F (1940)
Degree Days  
Heating Degree Days 20 16  
Month to date heating degree days 304  
Since 1 July heating degree days 1093  
Moisture  
Dew Point 36 °F    
Average Humidity 67    
Maximum Humidity 85    
Minimum Humidity 48    
Precipitation  
Precipitation 0.00 in 0.18 in 3.15 in (1898)
Month to date precipitation 2.95  
Year to date precipitation 2.95  
Snow  
Snow 0.00 in - T in (2008)
Month to date snowfall  
Since 1 July snowfall  
Snow Depth -    
Sea Level Pressure  
Sea Level Pressure 30.37 in    
Wind  
Wind Speed 2 mph (SSE)    
Max Wind Speed 6 mph    
Max Gust Speed -    
Visibility 10 miles    
Events      
T = Trace of Precipitation, MM = Missing Value Source: NWS Daily Summary

Daily Weather History Graph

Daily Weather History Graph

Search for Another Location

Airport or City:

Trip Planner

Search our weather history database for the weather conditions in past years. The results will help you decide how hot, cold, wet, or windy it might be!

Date:

Astronomy

Jan. 19, 2005 Rise Set
Actual Time 7:08 AM CST 5:33 PM CST
Civil Twilight 6:42 AM CST 5:59 PM CST
Nautical Twilight 6:13 AM CST 6:29 PM CST
Astronomical Twilight 5:43 AM CST 6:58 PM CST
Moon 12:57 PM CST (1/19) 2:27 AM CST (1/19)
Length of Visible Light 11h 17m
Length of Day
10h 25m
Waxing Gibbous, 73% of the Moon is Illuminated
Jan 19
Waxing Gibbous
Jan 25
Full
Feb 2
Last Quarter
Feb 8
New
Feb 15
First Quarter

Hourly Weather History & Observations

Time (CST) Temp. Windchill Dew Point Humidity Pressure Visibility Wind Dir Wind Speed Gust Speed Precip Events Conditions
12:53 AM 30.9 °F - 25.0 °F 79% 30.47 in 10.0 mi Calm Calm - N/A   Clear
1:53 AM 30.0 °F - 26.1 °F 85% 30.48 in 10.0 mi Calm Calm - N/A   Clear
2:53 AM 30.0 °F - 25.0 °F 82% 30.46 in 10.0 mi Calm Calm - N/A   Clear
3:53 AM 30.9 °F - 27.0 °F 85% 30.44 in 10.0 mi Calm Calm - N/A   Clear
4:53 AM 34.0 °F - 27.0 °F 75% 30.45 in 10.0 mi Calm Calm - N/A   Overcast
6:53 AM 37.0 °F 32.4 °F 28.9 °F 73% 30.43 in 10.0 mi SE 5.8 mph - N/A   Overcast
7:53 AM 39.0 °F 36.8 °F 28.9 °F 67% 30.45 in 10.0 mi SE 3.5 mph - N/A   Overcast
8:53 AM 41.0 °F 38.0 °F 28.0 °F 60% 30.45 in 10.0 mi SSE 4.6 mph - N/A   Overcast
9:53 AM 44.1 °F 41.5 °F 27.0 °F 51% 30.45 in 10.0 mi SE 4.6 mph - N/A   Overcast
10:53 AM 46.9 °F - 28.0 °F 48% 30.43 in 10.0 mi South 4.6 mph - N/A   Overcast
11:53 AM 50.0 °F - 30.9 °F 48% 30.40 in 10.0 mi Calm Calm - N/A   Overcast
12:53 PM 52.0 °F - 36.0 °F 54% 30.35 in 10.0 mi South 5.8 mph - N/A   Overcast
1:53 PM 55.9 °F - 39.9 °F 55% 30.31 in 10.0 mi Variable 4.6 mph - N/A   Overcast
2:53 PM 59.0 °F - 42.1 °F 53% 30.31 in 10.0 mi Calm Calm - N/A   Overcast
3:53 PM 61.0 °F - 43.0 °F 52% 30.29 in 10.0 mi SE 5.8 mph - N/A   Overcast
4:53 PM 60.1 °F - 46.0 °F 60% 30.27 in 10.0 mi SSW 5.8 mph - N/A   Overcast
5:53 PM 57.9 °F - 46.9 °F 67% 30.27 in 10.0 mi Calm Calm - N/A   Overcast
7:53 PM 57.0 °F - 46.0 °F 67% 30.28 in 10.0 mi SE 3.5 mph - N/A   Overcast
8:53 PM 53.1 °F - 46.0 °F 77% 30.28 in 10.0 mi SE 3.5 mph - N/A   Overcast
9:53 PM 53.1 °F - 46.0 °F 77% 30.28 in 10.0 mi ESE 3.5 mph - N/A   Overcast
10:53 PM 51.1 °F - 46.0 °F 83% 30.28 in 10.0 mi Calm Calm - N/A   Overcast
11:53 PM 50.0 °F - 44.1 °F 80% 30.25 in 10.0 mi Calm Calm - N/A   Partly Cloudy